COSMOS 2157

导读

COSMOS 2157是苏联(CIS)“宇宙”系列卫星之一,于1991年9月28日08:00发射升空。作为冷战末期苏联军事航天项目产物,该卫星延续“宇宙”系列典型任务定位,主要承担空间环境探测与技术验证任务,服务航天技术迭代需求。它进入近地轨道运行,是苏联航天活动收尾阶段的标志性成果,见证了航天时代发展变迁,为后续航天探索积累了宝贵技术经验。

Basic Information
目录编号:
21728
目录名称:
COSMOS 2157
国际标识:
1991-068A
轨道中心:
EARTH
卫星名称:
COSMOS 2157
卫星全名:
--
卫星状态:
在轨 (已飞行12768 天)
发射日期:
1991-09-28 UTC
国别 :
俄罗斯(独联体) (CIS)
星等 :
--
This satellite is enrolled in the Space Conjunction Data Service (SCDS) and the current flight risk assessment level is: No High Risk
Orbit Information
数据来源 国际轨道数据 AOE轨道数据
星历时间 2026-09-11T20:16:57+0800
19小时前
查看轨道信息
2026-09-09T23:00:00+0800
2天前
查看轨道信息
半长轴 7787.688km 7787.693km
偏心率 0.0003955 0.0004117
轨道倾角 82.574° 82.573°
近地点辐角 318.526° 319.056°
升交点赤经 262.607° 263.813°
平近点角 41.553° 104.824°
近地点 1406.47km 1406.349km
远地点 1412.632km 1412.763km
周期 113.992分钟 113.992分钟
每日圈数 12.63252 12.632507
Detailed Information
使用方式:
暂无
2D Orbit Map
3D Orbit Map
Orbit Altitude Analysis Chart
Orbit Inclination Analysis Chart
Orbit Comprehensive Analysis Chart
View Comprehensive Chart
Conjunction Data List
Event ID Objects TCA Miss Dist (km) Collision Risk Probability Collision Risk Index (CRI) Action
CDM_260914-070402-172803-719322
2026-09-14T
07:04:17+0000
1.332 km
极远距离
8.098564E-6 低风险 0.53
Miss Distance Evolution Trend with All Objects
Collision Probability Evolution Trend with All Objects